View from above orbital plane
|
View from above satellite
|
Ground track
|
The orbit data is extracted from the following two-line orbital elements,
1 00059U 60013B 21023.78802559 .00000089 00000-0 24389-5 0 9994
2 00059 28.2478 166.3913 0189277 335.4991 23.6658 13.52982385976372
Epoch (UTC): | 23 January 2021 18:54:45 |
Eccentricity: | 0.0189277 |
inclination: | 28.2478° |
perigee height: | 920 km |
apogee height: | 1202 km |
right ascension of ascending node: | 166.3913° |
argument of perigee: | 335.4991° |
revolutions per day: | 13.52982385 |
mean anomaly at epoch: | 23.6658° |
orbit number at epoch: | 97637 |
The dashed part of the orbit path shows where the satellite is in the earth's shadow,
|
|